SCP
0 0 0 0 0 0 0 0 0 0 0 0 0 0 0 0 0 0 0 0 0 0 0 0 0 0 0 0 0 0 0 0 0 0 0 0 0 0 0 0 0 0 0 0 0 0 0 0 0
0 0 0 0 0 0 0 0 0 0 0 0 0 0 0 0 0 0 0 0 0 0 0 0 0 0 0 0 0 0 0 0 0 0 0 0 0 0 0 0 0 0 0 0 0 0 0 0 0
0 0 0 0 0 0 0 0 0 0 0 0 0 0 0 0 0 0 0 0 0 0 0 0 0 1 0 0 0 0 0 0 0 0 0 0 0 0 0 0 0 0 0 0 0 0 0 0 0
0 0 0 0 0 0 0 0 0 0 0 0 0 0 0 0 0 0 0 1 1 1 1 0 1 1 0 0 0 0 0 0 0 0 0 0 0 0 0 0 0 0 0 0 0 0 0 0 0
0 0 0 0 0 0 0 0 0 0 0 0 0 0 0 0 0 0 1 1 1 1 1 1 1 1 0 0 0 0 0 0 0 0 0 0 0 0 0 0 0 0 0 0 0 0 0 0 0
0 0 0 0 0 0 0 0 0 0 0 0 0 0 0 0 0 1 1 1 1 1 1 1 1 1 0 0 0 0 0 0 0 0 0 0 0 0 0 0 0 0 0 0 0 0 0 0 0
0 0 0 0 0 0 0 0 0 0 0 0 0 0 0 0 0 0 1 1 1 1 1 1 1 0 0 0 0 0 0 0 0 0 0 0 0 0 0 0 0 0 0 0 0 0 0 0 0
0 0 0 0 0 0 0 0 0 0 0 0 0 0 0 0 0 0 1 1 1 1 1 1 1 0 0 0 0 0 0 0 0 0 0 0 0 0 0 0 0 0 0 0 0 0 0 0 0
0 0 0 0 0 0 0 0 0 0 0 0 0 0 0 0 0 0 1 2 2 1 1 1 1 0 0 0 0 0 0 0 0 0 0 0 0 0 0 0 0 0 0 0 0 0 0 0 0
0 0 0 0 0 0 0 0 0 0 0 0 0 0 0 0 0 0 1 1 1 1 1 1 0 0 0 0 0 0 0 0 0 0 0 0 0 0 0 0 0 0 0 0 0 0 0 0 0
0 0 0 0 0 0 0 0 0 0 0 0 0 0 0 0 0 0 0 1 1 1 1 1 1 0 0 0 0 0 0 0 0 0 0 0 0 0 0 0 0 0 0 0 0 0 0 0 0
0 0 0 0 0 0 0 0 0 0 0 0 0 0 0 0 0 0 0 1 1 1 1 1 1 0 0 0 0 0 0 0 0 0 0 0 0 0 0 0 0 0 0 0 0 0 0 0 0
0 0 0 0 0 0 0 0 0 0 0 0 0 0 0 0 0 0 0 0 1 1 1 1 1 0 0 0 0 0 0 0 0 0 0 0 0 0 0 0 0 0 0 0 0 0 0 0 0
0 0 0 0 0 0 0 0 0 0 0 0 0 0 0 0 0 0 0 0 1 1 1 1 1 1 0 0 0 0 0 0 0 0 0 0 0 0 0 0 0 0 0 0 0 0 0 0 0
0 0 0 0 0 0 0 0 0 0 0 0 0 0 0 0 0 0 0 0 1 1 1 1 1 1 1 0 0 0 0 0 0 0 0 0 0 0 0 0 0 0 0 0 0 0 0 0 0
0 0 0 0 0 0 0 0 0 0 0 0 0 0 0 0 0 0 0 0 1 1 1 1 1 1 1 1 0 0 0 0 0 0 0 0 0 0 0 0 0 0 0 0 0 0 0 0 0
0 0 0 0 0 0 0 0 0 0 0 0 0 0 0 0 0 0 0 0 1 1 1 1 1 1 1 1 0 0 0 0 0 0 0 0 0 0 0 0 0 0 0 0 0 0 0 0 0
0 0 0 0 0 0 0 0 0 0 0 0 0 0 0 0 0 0 0 0 1 1 1 1 1 1 1 1 1 0 0 0 0 0 0 0 0 0 0 0 0 0 0 0 0 0 0 0 0
0 0 0 0 0 0 0 0 0 0 0 0 0 0 0 0 0 0 0 0 1 1 1 1 1 1 1 1 1 1 1 0 0 0 0 0 0 0 0 0 0 0 0 0 0 0 0 0 0
0 0 0 0 0 0 0 0 0 0 0 0 0 0 0 0 0 0 0 0 1 1 1 1 1 1 1 1 1 1 1 0 0 0 0 0 0 0 0 0 0 0 0 0 0 0 0 0 0
0 0 0 0 0 0 0 0 0 0 0 0 0 0 0 0 0 0 0 0 0 0 0 0 0 1 1 1 1 1 1 0 0 0 0 0 0 0 0 0 0 0 0 0 0 0 0 0 0
0 0 0 0 0 0 0 0 0 0 0 0 0 0 0 0 0 0 0 0 0 0 0 0 0 1 1 1 1 1 1 0 0 0 0 0 0 0 0 0 0 0 0 0 0 0 0 0 0
0 0 0 0 0 0 0 0 0 0 0 0 0 0 0 0 0 0 0 0 0 0 0 0 0 0 1 1 1 1 1 1 0 0 0 0 0 0 0 0 0 0 0 0 0 0 0 0 0
0 0 0 0 0 0 0 0 0 0 0 0 0 0 0 0 0 0 0 0 0 0 0 0 0 0 1 1 1 1 1 1 1 0 0 0 0 0 0 0 0 0 0 0 0 0 0 0 0
0 0 0 0 0 0 0 0 0 0 0 0 0 0 0 0 0 0 0 0 0 0 0 0 0 0 0 1 1 1 1 1 1 1 1 0 0 0 0 0 0 0 0 0 0 0 0 0 0
0 0 0 0 0 0 0 0 0 0 0 0 0 0 0 0 0 0 0 0 0 0 0 0 0 0 0 0 1 1 1 1 1 1 0 0 0 0 0 0 0 0 0 0 0 0 0 0 0
0 0 0 0 0 0 0 0 0 0 0 0 0 0 0 0 0 0 0 0 0 0 0 0 0 0 0 0 1 1 1 1 1 0 0 0 0 0 0 0 0 0 0 0 0 0 0 0 0
0 0 0 0 0 0 0 0 0 0 0 0 0 0 0 0 0 0 0 0 0 0 0 0 0 0 0 0 1 1 1 1 1 1 0 0 0 0 0 0 0 0 0 0 0 0 0 0 0
0 0 0 0 0 0 0 0 0 0 0 0 0 0 0 0 0 0 0 0 0 0 0 0 0 0 0 0 0 1 1 1 1 1 0 0 0 0 0 0 0 0 0 0 0 1 1 0 0
0 0 0 0 0 0 0 0 0 0 0 0 0 0 0 0 0 0 0 0 0 0 0 0 0 0 0 0 0 0 0 0 0 0 0 0 0 0 0 0 0 0 0 0 0 1 1 1 1
Wind_Speed
12 6 2 4 6 4 2 3 3 2 1 0 3 8 8 4 3 3 3 11 13 13 11 12 13 14 14 13 13 12 12 12 12 12 12 12 12 12 12 11 11 11 11 11 10 10 10 9 9
7 3 4 5 5 1 3 2 3 3 4 3 4 6 6 3 2 6 6 11 15 13 11 11 12 14 14 14 13 12 12 12 12 12 12 12 11 11 11 10 10 10 10 9 9 9 9 8 7
6 2 4 4 3 5 4 3 4 2 2 3 4 4 5 5 5 6 8 14 14 12 10 11 13 14 14 14 13 12 12 12 12 12 12 11 11 10 10 9 9 9 9 8 8 8 8 7 6
3 4 5 3 3 5 7 6 5 4 2 3 5 4 2 3 6 7 13 14 13 11 10 11 13 14 14 13 13 12 12 12 12 12 12 11 11 10 9 9 8 8 8 7 7 7 6 5 4
4 4 3 1 4 3 4 6 6 5 4 2 5 4 1 2 6 13 15 14 14 10 9 11 13 13 13 13 13 12 12 12 12 12 11 11 10 10 9 9 8 7 7 7 7 6 5 4 3
4 4 2 3 4 3 3 5 5 4 3 3 5 5 2 2 9 12 13 12 12 12 10 10 12 12 12 12 11 11 11 11 11 11 11 10 10 10 9 8 8 8 7 6 6 5 4 3 1
3 3 3 4 3 3 4 3 6 6 5 5 7 6 3 4 6 9 10 10 10 11 10 8 8 10 11 11 10 10 9 9 10 10 10 9 9 9 8 8 8 8 7 7 6 5 4 4 3
3 3 2 3 4 5 3 2 4 6 4 3 6 9 7 8 7 8 9 9 9 9 9 9 7 7 7 7 10 10 10 9 9 9 9 9 9 8 8 7 7 8 8 7 7 6 5 5 5
2 3 4 4 5 4 3 2 1 2 4 3 2 6 7 11 10 9 7 6 8 8 8 8 8 7 7 7 8 9 10 10 9 8 9 8 5 5 5 7 7 8 8 8 8 7 7 6 5
2 4 6 3 3 3 2 2 3 3 3 2 3 3 7 11 11 11 10 11 11 11 10 9 9 9 8 7 6 5 5 6 6 5 6 5 4 4 5 7 9 8 8 8 8 8 7 5 3
3 6 3 3 2 2 1 1 2 6 3 5 7 8 9 10 10 11 11 11 11 10 10 10 10 9 9 6 5 4 3 4 5 6 6 5 4 3 4 3 4 5 6 4 5 5 3 3 3
2 3 3 2 2 1 2 2 1 4 7 6 10 14 12 12 13 13 13 11 8 9 10 10 10 9 9 7 6 5 4 4 5 6 7 5 4 4 4 3 4 3 3 4 3 3 4 4 5
4 3 3 3 3 3 2 3 3 5 5 3 7 10 12 13 12 11 10 9 8 10 10 10 10 10 9 8 6 7 6 6 6 6 7 7 5 5 5 4 4 4 4 4 4 4 5 5 5
4 4 5 4 4 3 3 5 2 6 3 4 8 10 11 12 12 9 8 10 10 11 11 10 10 10 9 8 7 6 6 6 6 6 7 8 6 6 5 5 5 5 5 5 5 5 5 5 4
2 3 5 5 4 3 1 6 7 7 3 5 7 9 10 10 10 11 12 12 12 11 10 11 11 10 10 10 9 6 6 6 6 6 7 8 8 7 6 5 5 5 5 5 4 5 4 4 4
2 3 5 5 5 4 5 10 8 5 5 7 8 8 8 9 10 11 12 11 11 10 10 11 10 11 11 10 8 6 6 6 6 5 5 7 8 7 6 5 5 5 4 4 4 4 4 4 4
4 5 6 4 5 4 7 8 6 4 5 8 8 8 8 8 9 10 10 11 11 12 11 11 11 11 11 10 7 6 5 6 5 5 5 6 8 7 6 5 5 5 4 5 5 4 4 4 5
8 6 6 7 4 5 8 9 8 5 6 8 8 8 8 9 11 10 10 10 10 10 11 11 11 11 9 7 5 4 5 5 5 6 6 7 7 7 7 5 5 5 4 5 5 5 4 4 4
5 6 7 6 3 4 9 11 11 8 7 8 8 8 9 10 10 7 8 8 8 8 10 10 11 10 8 6 6 6 7 6 5 6 6 7 7 7 7 6 5 6 6 6 6 5 5 5 2
7 7 6 4 3 4 7 12 11 10 9 10 11 11 10 9 7 6 6 6 8 9 9 10 10 9 9 8 7 5 4 4 5 4 5 7 7 7 7 7 6 6 6 6 6 5 4 4 3
10 10 8 4 2 2 4 9 10 9 8 9 10 10 10 10 10 8 6 7 7 7 8 8 9 9 9 9 5 3 2 1 3 4 5 6 7 7 7 8 7 6 6 6 7 6 7 6 4
11 8 7 5 3 4 4 8 8 8 9 10 10 9 10 10 9 7 6 6 7 8 7 7 7 8 8 8 7 8 7 7 7 5 5 5 6 7 7 7 7 7 6 6 6 6 6 6 5
5 4 6 6 5 5 5 7 8 5 9 10 10 10 10 10 9 8 8 7 6 5 5 5 5 5 6 7 8 9 8 7 4 3 4 4 5 6 6 6 6 7 6 6 6 6 6 6 6
3 2 1 2 3 10 11 9 9 7 10 8 8 9 10 9 8 7 6 4 4 3 3 4 5 5 5 6 7 8 9 7 5 5 5 4 4 4 5 6 6 6 6 6 7 6 7 6 7
5 5 3 5 7 9 7 9 11 8 9 10 10 9 9 8 7 6 5 5 4 4 4 3 4 4 4 5 6 7 8 8 8 7 6 4 4 4 5 5 6 6 6 6 6 6 6 7 7
8 9 8 7 6 4 5 11 9 7 7 7 7 6 5 4 4 5 5 5 4 4 4 4 4 4 3 4 5 5 5 5 4 5 4 5 4 4 4 5 5 6 6 6 6 5 6 5 6
7 8 6 3 2 3 6 7 8 4 4 4 3 3 4 4 4 4 4 3 3 3 4 4 4 3 3 3 4 3 4 4 4 4 3 2 2 2 2 3 3 4 4 5 5 5 6 5 6
6 5 3 5 5 7 6 7 7 5 5 4 4 4 4 3 2 1 1 1 1 1 1 2 3 3 2 2 3 3 3 3 3 3 3 2 2 2 2 2 2 2 3 3 4 4 4 4 4
4 5 4 4 5 5 6 8 6 6 6 6 6 5 4 3 2 2 1 1 1 1 2 1 1 1 1 1 1 2 2 2 3 3 3 3 2 2 2 2 2 2 2 2 2 2 2 3 3
4 5 5 5 6 4 5 8 3 3 3 3 3 3 2 2 2 1 1 0 0 1 1 1 1 1 1 1 1 1 1 1 2 2 2 2 2 2 2 2 2 2 2 2 2 2 2 3 3
Wind_Direction
323 325 64 61 55 51 244 246 178 141 88 81 90 97 106 106 143 157 131 139 136 146 152 149 148 146 143 140 139 139 137 134 130 128 126 123 119 117 113 110 109 105 102 101 101 99 96 91 85
315 338 53 60 90 114 262 247 164 175 167 138 89 93 89 84 99 118 125 146 142 147 151 151 148 148 146 144 144 142 139 137 137 134 131 129 127 124 121 118 116 113 110 108 108 106 102 97 89
319 49 76 75 138 190 207 211 172 152 144 109 79 74 116 144 141 149 153 147 141 146 150 152 152 151 150 148 147 146 145 144 143 141 139 137 135 131 129 126 123 122 119 116 114 113 106 100 91
18 34 55 80 233 226 187 198 175 133 83 80 102 79 92 155 167 150 142 144 142 147 150 155 155 155 155 154 153 153 153 152 149 148 147 146 144 141 138 137 134 132 130 126 123 123 116 107 95
51 70 56 315 254 253 199 188 170 149 156 126 109 111 84 350 128 134 143 146 146 149 153 159 157 158 160 161 160 159 160 159 156 155 154 154 153 152 152 151 149 148 142 138 136 136 132 129 118
48 70 106 239 254 259 223 195 156 150 163 138 115 121 159 151 133 143 148 149 150 152 155 160 160 160 162 164 165 164 164 163 163 163 162 161 163 163 163 163 163 163 160 156 157 156 156 161 171
113 117 192 219 233 250 231 182 152 155 164 173 139 124 158 187 161 145 144 145 148 152 155 160 163 164 166 167 168 168 168 167 168 169 168 167 169 172 171 172 177 179 177 178 178 179 187 205 228
141 126 210 223 212 238 230 166 163 150 176 160 133 149 182 198 166 135 134 140 148 155 161 165 167 167 168 171 175 174 174 173 173 174 173 174 177 178 179 182 191 195 194 194 195 196 209 224 239
107 120 214 220 205 232 233 158 127 137 119 77 104 174 185 153 143 132 135 142 156 165 170 171 173 175 174 176 183 181 181 182 180 180 182 179 183 185 188 196 200 207 206 205 209 212 221 232 246
131 186 218 221 216 229 242 174 164 104 96 76 46 52 124 143 153 157 165 170 174 179 181 179 179 181 181 186 181 184 187 186 185 182 185 184 187 194 198 206 210 213 213 216 220 222 228 234 247
187 204 228 258 274 249 231 241 166 136 178 184 170 160 151 159 167 174 180 181 184 182 182 184 184 184 183 186 180 185 186 185 191 192 192 190 190 198 202 201 213 217 217 220 230 232 228 227 234
227 239 228 263 316 311 247 237 202 183 208 200 178 165 166 175 183 187 188 189 185 184 191 188 186 186 188 185 185 185 187 190 196 198 196 190 194 202 201 201 202 202 203 206 216 222 229 234 239
233 256 262 271 295 277 264 239 225 238 240 190 156 163 179 188 196 200 195 190 186 193 197 193 188 190 189 187 190 190 193 196 198 198 201 196 197 203 203 205 203 204 202 204 213 221 229 237 244
230 255 274 272 272 262 248 269 233 244 201 158 165 182 193 197 200 200 199 200 199 201 202 197 193 193 188 190 193 193 194 195 197 200 201 199 200 201 201 204 205 208 206 208 212 217 224 233 238
219 258 279 257 231 230 207 266 234 237 196 189 196 201 208 212 205 205 205 204 204 204 202 199 198 194 192 195 197 196 195 193 198 203 202 202 202 201 201 203 207 209 207 208 213 222 224 235 241
178 195 241 249 209 207 181 246 252 240 207 220 220 216 219 225 217 214 210 208 205 202 200 202 199 196 199 200 199 199 197 196 201 199 200 204 204 201 200 206 212 204 199 204 211 216 222 235 241
189 203 215 242 215 200 196 239 256 250 217 229 232 226 225 230 233 226 216 211 206 203 200 201 199 199 201 201 200 200 197 203 204 200 204 207 206 204 203 210 213 203 206 210 215 216 213 231 243
190 195 203 212 216 203 222 242 257 257 231 234 237 238 235 231 233 228 221 215 210 204 200 200 199 200 197 193 192 196 205 211 208 209 211 207 209 207 208 214 214 207 212 218 217 222 220 226 238
184 193 213 223 219 210 235 248 253 253 247 246 245 239 238 238 239 231 223 216 209 205 200 198 197 197 187 184 191 199 211 212 212 215 212 209 210 208 210 217 214 210 217 221 217 217 226 233 223
218 222 226 250 234 223 252 258 254 247 239 233 235 238 238 243 248 234 226 216 208 206 204 201 198 193 191 195 192 192 190 202 210 211 213 213 212 210 210 214 217 215 219 222 219 213 221 227 196
223 221 217 227 303 279 278 274 254 252 244 243 239 234 234 229 232 230 218 216 208 205 204 202 200 195 195 191 171 158 158 187 201 211 216 216 213 213 213 215 216 217 219 226 223 217 219 229 219
229 216 208 212 210 249 212 268 259 243 252 248 243 237 236 235 230 227 217 214 210 211 205 201 198 194 193 185 179 181 192 207 214 210 210 207 208 214 215 217 218 220 221 226 226 220 221 222 230
220 196 202 211 214 242 224 252 267 230 240 244 241 236 235 233 227 223 218 214 212 206 196 193 184 187 188 185 187 189 202 213 210 196 199 208 210 213 215 216 217 221 222 225 226 224 223 223 228
193 132 211 208 209 239 221 223 262 216 222 233 235 233 232 229 227 226 221 204 199 188 181 177 169 183 184 181 186 190 197 200 193 200 206 213 215 216 218 218 220 223 224 225 226 226 227 228 229
180 162 197 211 216 238 193 214 249 223 220 218 227 234 233 226 220 215 205 193 189 182 179 173 165 178 182 178 187 193 198 197 200 204 207 206 213 221 225 220 222 224 226 226 223 223 228 230 232
198 188 197 206 214 246 195 225 248 232 230 230 231 237 242 231 216 207 197 192 192 186 176 172 175 181 179 177 187 193 193 194 200 204 201 205 213 221 225 219 222 225 225 227 225 225 229 231 233
192 210 203 208 247 255 243 265 294 260 247 243 242 241 245 239 226 213 201 193 189 186 183 180 177 177 178 179 175 178 186 185 187 187 192 197 207 209 210 211 219 227 229 230 227 228 231 231 234
193 180 174 194 203 234 249 242 239 240 244 247 241 241 250 250 245 236 191 187 193 187 166 149 159 174 179 178 179 171 177 178 175 163 169 184 197 191 187 199 208 219 228 231 226 230 234 231 237
187 193 208 207 198 202 247 255 225 211 219 231 244 246 243 233 236 253 270 241 136 115 118 121 148 147 139 151 166 162 168 170 167 168 180 190 189 181 188 195 199 207 217 219 217 227 229 228 240
206 198 192 214 237 231 246 261 249 216 240 240 261 279 272 241 235 239 254 258 85 144 172 185 186 172 181 171 152 154 163 164 167 181 194 187 185 191 195 188 186 203 214 206 203 216 225 232 241